CAPE
2 2 2 3 2 2 2 2 2 1 2 2 2 2 1 3 2 1 1 1 2 1 0 0 0 0 0 0 0 0 0 0 0 0 0 0 0 34 199 305 1291 2324 1663 994 952 1183 1565 1898 2184 2296 2374 2265 1587 2689 1360 2752 1875 1946 1628 888 842 1050 1218 1095 1756 1312 885 1791 1192 960 964 1085 1434 854 996 993 1134 1332 878 1360 1262 938 666 1332 965 1186 893 976
2 2 3 2 2 2 2 2 1 2 2 2 2 3 2 2 2 2 1 1 1 2 0 0 0 0 0 0 0 0 0 0 0 0 0 32 0 65 240 1482 2254 1893 2144 871 1072 1040 1940 2229 1882 2196 2120 2215 1191 2091 1587 2650 1454 1580 1400 911 1090 1139 1163 1422 1432 1415 1662 1375 1296 1236 666 826 1269 978 1116 1540 1315 1383 1388 1643 1427 1438 1447 1056 1054 1192 855 1017
2 2 2 2 2 2 2 1 1 2 1 2 2 2 2 2 2 1 1 0 1 2 0 0 0 0 0 0 1 0 0 0 0 0 0 628 373 528 610 2057 2448 1234 1002 693 907 1538 1696 2020 1550 1782 1600 2110 1092 1824 1630 1762 1572 1292 1501 1200 1390 895 1115 1614 1594 1594 1752 1179 1103 1045 808 723 845 933 859 1420 1362 1359 1464 1920 1580 1694 1472 1382 1247 1120 1116 1126
2 2 2 2 2 2 2 1 1 2 2 2 2 2 2 3 2 2 1 2 1 1 0 0 0 0 0 0 0 0 0 0 0 0 31 1200 105 821 1426 2184 1965 1137 732 467 915 1630 1295 1463 1584 1529 1765 1610 1394 1700 2085 1375 2171 818 1622 1064 1384 1391 1575 1270 1771 1757 1586 1544 1470 1351 812 817 694 803 949 1349 1297 1402 1459 1407 1531 1597 1403 1360 1360 1053 990 1148
3 3 2 3 2 2 2 2 1 1 2 2 2 2 2 3 3 2 2 1 2 2 0 0 0 0 0 0 0 0 0 0 0 0 254 1905 1024 649 1795 2382 1482 456 276 359 1274 1459 1568 1502 1546 1702 1298 1216 938 2101 891 1846 928 1322 715 1038 1288 1597 1752 1220 1598 1771 1596 1417 1459 1163 1216 1044 526 690 778 1124 1357 1428 1159 1285 1209 1557 1380 1284 1229 1080 646 733
3 3 3 2 3 2 2 2 1 1 2 3 3 1 2 2 2 3 2 1 2 1 0 0 0 0 0 0 0 0 0 0 0 0 2436 2135 1801 953 1956 2409 1632 351 122 314 662 1371 1508 1606 1613 1704 1174 991 447 897 599 1237 1049 1437 1306 1130 1375 1623 2222 1596 1431 1780 1617 1863 1754 1559 1705 1136 731 874 850 950 924 1201 499 1161 1113 1467 1410 1230 1064 938 711 914
2 2 3 3 3 2 2 2 3 2 2 2 4 2 2 1 3 2 2 1 1 2 0 0 0 0 0 0 0 0 0 0 0 0 848 1771 2362 1258 2394 2433 1953 350 46 160 306 979 1367 1568 1367 959 1107 1131 225 728 412 1226 1224 1292 1201 868 1735 1879 2165 1706 1547 1922 1285 1647 2140 1946 1441 1268 1173 1084 802 738 819 970 898 674 1286 1447 1379 1019 1275 1148 614 458
2 3 2 3 4 2 2 2 2 3 2 2 2 2 2 2 2 4 2 0 2 0 0 0 0 0 0 0 0 0 0 0 0 0 354 1321 1519 1084 2395 963 184 0 0 4 80 370 976 1096 936 694 1063 628 229 795 729 1380 1490 1027 1110 1102 1749 1705 2065 1885 1605 1236 1778 1790 2034 1862 1622 1634 1474 1497 1056 941 628 901 865 1002 1214 1501 1500 1338 1444 1267 1048 932
2 2 3 3 3 3 2 2 3 3 3 2 2 4 3 2 3 3 1 1 1 0 0 0 0 0 0 0 0 0 0 0 0 86 857 780 232 451 520 278 9 0 0 0 0 295 670 971 825 624 754 505 244 718 202 664 1207 459 744 1205 1469 1889 1869 2063 2072 2171 2042 2354 2358 1884 1794 1702 1625 1252 1169 997 775 806 998 1263 1433 1540 1593 1494 1460 1283 1050 972
2 2 4 3 3 3 3 3 2 4 4 2 3 3 3 1 2 2 1 2 0 0 0 0 0 0 0 0 0 0 0 0 0 165 377 394 307 79 368 8 1 0 0 0 10 64 384 634 486 427 355 703 189 554 133 709 407 522 835 1114 1442 1870 1690 2005 2110 2473 2347 2200 2131 1749 1714 1630 1612 1155 1378 1039 1062 717 1262 1436 1663 1646 1639 1532 1500 1346 1117 967
2 3 3 4 3 3 3 4 3 2 2 2 2 4 4 1 2 1 1 1 0 0 0 0 0 0 0 0 0 0 0 0 0 0 49 0 0 16 0 0 0 0 0 0 0 2 122 75 529 236 490 388 102 221 239 416 338 838 791 1158 1689 1782 1928 1909 1873 2318 2186 1937 1993 1971 1709 1544 1595 1560 1191 1387 967 1122 1280 1615 1749 1771 1840 1627 1522 1423 1270 1146
2 3 3 3 3 3 3 3 2 2 0 2 3 3 2 3 1 1 0 0 0 0 0 0 0 0 0 0 0 0 0 0 0 0 0 0 0 0 0 0 0 0 0 0 0 0 0 38 15 190 188 44 314 54 912 313 1230 923 888 1262 1219 1544 1660 2274 2061 2001 1806 1764 1715 2185 1438 1389 1761 1632 1505 1267 1096 1180 1405 1673 1769 1834 1928 1633 1458 1364 1270 1087
3 3 3 3 3 2 3 2 2 0 1 3 4 2 2 1 1 0 0 0 0 0 0 0 0 0 0 0 0 0 0 0 0 0 0 0 0 0 0 0 0 0 0 0 0 0 0 0 0 0 68 14 14 168 88 768 1099 1101 1660 889 1004 1220 1250 1616 2702 2421 1920 1821 1971 1778 935 679 1491 1600 1618 1504 1252 1314 1413 1754 1735 1918 1929 1576 1281 1039 1119 1039
3 3 3 4 6 6 2 3 2 2 1 4 2 1 1 1 0 0 0 0 0 0 0 0 0 0 0 0 0 0 0 0 0 0 0 0 0 0 0 0 0 0 0 0 0 0 0 0 0 0 0 0 19 32 453 920 887 771 876 955 366 323 165 1553 1824 2370 1575 2692 1641 1547 542 328 802 1499 2018 1531 1578 1358 1432 1614 1653 1939 1768 1494 1194 845 1008 728
3 3 3 3 2 2 2 2 2 2 1 0 2 2 0 0 0 0 0 0 0 0 0 0 0 0 0 0 0 0 0 0 0 0 0 0 0 0 0 0 0 0 0 0 0 0 0 0 0 0 0 1 0 39 214 494 801 493 465 515 362 219 443 1486 1329 1490 1400 2761 1584 1420 439 357 629 1969 2126 1497 1899 1557 1456 1467 1594 1822 1816 1562 1261 1112 898 1041
2 2 1 2 2 2 3 2 3 3 2 0 1 1 0 0 0 0 0 0 0 0 0 0 0 0 0 0 0 0 0 0 0 0 0 0 0 0 0 0 0 0 0 0 0 0 0 0 0 0 0 0 38 138 234 268 798 556 197 224 180 123 102 338 795 1594 1609 1920 2098 1080 540 346 849 1070 1594 1549 1966 1555 1626 1525 1563 1718 1765 1682 1438 1268 1066 1142
2 2 5 6 3 3 1 2 2 2 1 2 1 0 0 0 0 0 0 0 0 0 0 0 0 0 0 0 0 0 0 0 0 0 0 0 0 0 0 0 0 0 0 0 0 0 0 0 0 0 0 0 21 71 172 177 144 76 115 103 112 113 40 112 1307 1604 1802 919 1271 1810 1001 458 446 871 1246 1370 1469 1718 1563 1786 1582 1679 1792 1790 1602 1292 1176 1145
2 4 5 7 5 1 2 1 1 0 1 1 0 0 0 0 0 0 0 0 0 0 0 0 0 0 0 0 0 0 0 0 0 0 0 0 0 0 0 0 0 0 0 0 0 0 0 0 0 0 0 0 0 11 114 72 190 88 73 60 52 8 11 42 54 1560 832 1651 767 1024 1449 1050 617 1069 1340 1233 1176 1557 1597 1807 1726 1695 1714 1879 1734 1480 1303 1242
3 1 4 5 4 1 0 1 1 1 1 0 0 0 0 0 0 0 0 0 0 0 0 0 0 0 0 0 0 0 0 0 0 0 0 0 0 0 0 0 0 0 0 0 0 0 0 0 0 0 0 0 0 0 24 82 4 0 0 3 13 39 10 11 63 236 249 381 1413 1088 571 380 459 722 1307 1403 1357 1474 1625 1744 1948 1804 1697 1899 1899 1635 1417 1437
2 2 4 6 5 2 2 0 0 0 0 0 0 0 0 0 0 0 0 0 0 0 0 0 0 0 0 0 0 0 0 0 0 0 0 0 0 0 0 0 0 0 0 0 0 0 0 0 0 0 0 0 0 0 0 0 0 0 0 0 5 1 6 15 10 418 552 404 536 508 487 444 361 334 974 1390 1529 1464 1558 1672 1909 1898 1684 1664 1725 1696 1518 1484
1 3 6 6 8 3 2 0 2 1 0 0 0 0 0 0 0 0 0 0 0 0 0 0 0 0 0 0 0 0 0 0 0 0 0 0 0 0 0 0 0 0 0 0 0 0 0 0 0 0 0 0 0 0 0 0 0 0 0 0 0 0 2 0 1 720 549 379 13 398 522 316 372 414 488 1129 1452 1468 1418 1676 1786 1948 1767 1590 1628 1641 1657 1576
2 2 6 4 3 1 1 0 0 1 0 0 0 0 0 0 0 0 0 0 0 0 0 0 0 0 0 0 0 0 0 0 0 0 0 0 0 0 0 0 0 0 0 0 0 0 0 0 0 0 0 0 0 0 0 0 0 0 0 1 0 1 0 16 429 422 1018 428 167 505 474 320 326 467 551 1085 1442 1322 1283 1415 1647 1863 1932 1827 1574 1622 1676 1646
1 3 0 4 3 2 0 2 2 0 0 0 0 0 0 0 0 0 0 0 0 0 0 0 0 0 0 0 0 0 0 0 0 0 0 0 0 0 0 0 0 0 0 0 0 0 0 0 0 0 0 0 0 0 0 0 0 0 1 1 0 0 0 0 1458 757 1368 232 85 205 436 460 615 650 621 1156 1505 1298 1227 1251 1521 1691 1784 1781 1621 1579 1546 1637
2 0 2 0 2 1 0 1 2 0 0 0 0 0 0 0 0 0 0 0 0 0 0 0 0 0 0 0 0 0 0 0 0 0 0 0 0 0 0 0 0 0 0 0 0 0 0 0 0 0 0 0 0 0 0 0 0 0 0 0 0 0 0 0 0 6 558 985 861 991 916 427 381 399 1037 1098 1603 1579 1516 1210 1333 1572 1618 1747 1707 1500 1522 1458
2 2 1 2 0 2 0 0 0 0 0 0 0 0 0 0 0 0 0 0 0 0 0 0 0 0 0 0 0 0 0 0 0 0 0 0 0 0 0 0 0 0 0 0 0 0 0 0 0 0 0 0 0 0 0 0 0 0 0 0 0 0 0 0 0 0 2 4 1640 827 89 16 159 141 104 1660 1694 1690 1682 1555 1387 1562 1743 1796 1754 1601 1522 1515
1 2 1 1 3 0 2 0 0 0 0 0 0 0 0 0 0 0 0 0 0 0 0 0 0 0 0 0 0 0 0 0 0 0 0 0 0 0 0 0 0 0 0 0 0 0 0 0 0 0 0 0 0 0 0 0 0 0 13 0 0 0 0 0 0 0 0 16 1016 457 60 126 148 114 318 1485 1368 1556 1868 1774 1546 1473 1862 1855 1910 1870 1662 1407
0 1 1 0 0 1 0 0 0 0 0 0 0 0 0 0 0 0 0 0 0 0 0 0 0 0 0 0 0 0 0 0 0 0 0 0 0 0 0 0 0 0 0 0 0 0 0 0 0 0 0 0 0 0 0 0 0 0 0 0 0 0 0 0 6 0 0 3 106 195 231 139 87 97 436 852 787 1089 1668 1778 1638 1417 1759 1770 1772 1791 1889 1572
1 0 2 1 0 0 0 0 0 0 0 0 0 0 0 0 0 0 0 0 0 0 0 0 0 0 0 0 0 0 0 0 0 0 0 0 0 0 0 0 0 0 0 0 0 0 0 0 0 0 0 0 0 0 0 0 0 0 0 0 0 0 0 0 11 0 0 0 35 402 634 140 118 376 939 1301 564 844 1255 1775 1695 1524 1560 1682 1738 1583 1793 1580
0 0 1 1 0 0 0 0 0 0 0 0 0 0 0 0 0 0 51 0 0 0 0 0 0 0 0 0 0 0 0 0 0 0 0 0 0 0 0 0 0 0 0 0 0 0 0 0 0 0 0 0 0 0 0 0 0 0 0 0 0 0 0 0 0 0 86 87 28 72 486 109 11 71 65 1333 138 35 74 757 1413 1827 1506 1548 1599 1527 1465 1474
0 1 0 3 1 0 0 0 0 0 0 0 0 0 0 0 0 0 0 0 0 0 0 0 0 0 0 0 0 0 0 0 0 0 0 0 0 0 0 0 0 0 0 0 0 0 0 0 0 0 0 0 0 0 0 0 0 0 0 0 0 0 0 0 4 74 176 87 52 0 0 0 32 89 49 239 120 0 0 42 444 1331 1520 1461 1566 1526 1293 1416
1 1 1 0 0 0 0 0 0 0 0 0 0 0 0 0 16 0 0 0 0 0 0 0 0 0 0 0 0 0 0 0 0 0 0 0 0 0 0 0 0 0 0 0 0 0 0 0 0 0 0 0 0 0 0 0 0 0 0 0 0 0 0 0 187 380 74 68 2 0 2 128 160 88 58 91 28 88 65 41 47 162 1206 1566 1564 1412 1225 991
0 1 1 0 0 0 0 0 0 0 0 0 0 0 0 3 0 0 0 0 0 0 0 0 0 0 0 0 0 0 0 0 0 0 0 0 0 0 0 0 0 0 0 0 0 0 0 0 0 0 0 0 0 0 0 0 0 0 0 0 0 0 0 0 4 4 0 12 107 16 0 64 79 32 44 8 8 78 52 41 126 132 167 1215 1395 1345 1274 1167
2 1 1 0 0 0 0 0 0 0 0 0 0 0 0 0 0 0 0 0 0 0 0 0 0 0 0 0 0 0 0 0 0 0 0 0 0 0 0 0 0 0 0 0 0 0 0 0 0 0 0 0 0 0 0 1 0 0 0 0 0 0 0 0 0 0 0 0 0 3 319 78 0 1 0 3 34 4 77 125 170 542 672 596 1044 1347 1234 1277
0 0 0 0 0 0 0 0 0 0 0 0 0 0 0 0 0 0 0 0 0 0 0 0 0 0 0 0 0 0 0 0 0 0 0 0 0 0 0 0 0 0 0 0 0 0 0 0 0 0 0 0 0 0 0 0 0 0 0 0 0 0 0 0 0 0 0 3 0 133 40 35 0 11 5 0 4 114 554 901 1199 1708 1506 1146 1014 1050 1250 1415
0 0 0 0 0 0 0 0 0 0 0 0 0 2 0 0 0 0 0 0 0 0 0 0 0 0 0 0 0 0 0 0 0 0 0 0 0 0 0 0 0 0 0 0 0 0 0 0 0 0 0 0 0 0 0 0 0 0 0 0 0 0 0 0 0 1 0 0 0 77 2 2 0 0 1 0 72 259 48 378 727 1518 1437 1046 1110 1064 1089 1348
0 0 0 0 0 0 0 0 0 0 0 0 0 0 0 0 0 0 0 0 0 0 0 0 0 0 0 0 0 0 0 0 0 0 0 0 0 0 0 0 0 0 0 0 0 0 0 0 0 0 0 0 0 0 0 0 2 0 0 0 0 0 0 0 0 0 0 0 0 0 0 0 0 0 0 0 51 508 489 830 788 1793 1423 1361 1020 1156 1255 1358
0 0 0 0 0 0 0 0 0 0 0 0 0 0 0 0 0 0 0 0 0 0 0 0 0 0 0 0 0 0 0 0 0 0 0 0 0 0 0 0 0 0 0 0 0 0 0 0 0 0 0 0 0 0 0 0 0 0 0 0 0 0 0 0 0 0 0 0 0 0 2 0 0 0 0 0 368 580 1060 1563 1233 1688 1557 1385 1538 1519 1473 1453
0 0 0 0 0 0 0 0 0 0 0 0 0 0 0 0 0 0 0 0 0 0 0 0 0 0 0 0 0 0 0 0 0 0 0 0 0 0 0 0 0 0 0 0 0 0 0 0 0 0 0 0 0 0 0 0 1 0 0 0 0 0 0 0 0 0 0 0 0 0 0 0 0 38 32 222 839 1300 1727 2118 1899 1658 1566 1672 1511 1745 1800 1626
0 0 20 0 0 0 0 0 0 0 0 0 0 0 0 0 0 0 0 0 0 0 0 0 0 0 0 0 0 0 0 0 0 0 0 0 0 0 0 0 0 0 0 0 0 0 0 0 0 0 0 0 0 0 0 0 3 0 0 0 0 0 0 0 0 0 0 0 0 0 0 2 209 745 751 958 1478 1649 1818 2178 2214 1862 1590 1648 1751 1890 2253 2060
0 0 0 0 0 0 0 0 0 0 0 0 0 0 0 0 0 0 0 0 0 0 0 0 0 0 0 0 0 0 0 0 0 0 0 0 0 0 0 0 0 0 0 0 0 0 0 0 0 0 0 0 0 0 4 0 0 0 0 0 0 0 0 0 0 0 0 0 36 0 0 19 810 1317 1103 1554 1611 1619 1803 1984 2128 1987 1942 1776 1887 2064 2452 2334
0 0 0 0 0 0 0 0 0 0 0 0 0 0 0 0 0 0 0 0 0 0 0 0 0 0 0 0 0 0 0 0 0 0 0 0 0 0 0 0 0 0 0 0 0 0 0 0 0 0 0 0 0 0 0 0 0 1 0 0 0 1 52 8 0 0 0 0 0 8 8 138 525 1240 1531 1286 1730 1556 1891 2025 1971 2044 2024 2258 2196 2318 2610 2728
0 0 0 0 0 0 0 0 0 0 0 0 0 0 0 0 0 0 0 0 0 0 0 0 0 0 0 0 0 0 0 0 0 0 0 0 0 0 0 0 0 0 0 0 0 0 0 0 0 0 0 0 0 0 0 0 0 0 0 0 0 0 7 121 48 57 117 48 3 91 75 610 527 1373 1463 1383 1483 1550 1898 1960 2252 2109 2160 2146 2223 2367 2744 2792
0 0 0 0 0 0 0 0 0 0 0 0 0 0 0 0 0 0 0 0 0 0 0 0 0 0 0 0 0 0 0 0 0 0 0 0 0 0 0 0 0 0 0 0 0 0 0 0 0 0 0 0 0 0 0 0 0 0 0 0 0 9 160 444 653 530 169 92 141 277 99 287 685 1575 1422 1462 1409 1439 1635 1824 1971 1910 2224 2288 2504 2563 2782 2885
0 0 0 0 0 0 0 0 0 0 0 0 0 0 0 0 0 0 0 0 0 0 0 0 0 0 0 0 0 0 0 0 0 0 0 0 0 0 0 0 0 0 0 2 0 0 0 3 0 0 0 0 0 0 0 0 0 0 0 0 0 22 180 323 468 676 325 129 16 194 115 321 1025 1196 940 1579 1401 1501 1522 1521 1774 1951 2162 2409 2643 2744 2804 2924
0 0 0 0 0 0 0 0 0 0 0 0 0 0 0 0 0 0 0 0 0 0 0 0 0 0 0 0 0 0 0 0 0 0 0 0 0 0 0 0 0 0 0 0 0 0 0 0 0 0 0 0 0 0 3 0 0 0 0 0 1 86 413 695 274 511 124 360 446 184 4 823 890 982 1082 1258 1634 1724 1699 1484 1860 1556 1816 2310 2434 2855 2963 2921
0 0 0 0 0 0 0 0 0 0 0 0 0 0 0 0 0 0 0 0 0 0 0 0 0 0 0 0 0 0 0 0 0 0 0 0 0 0 0 0 0 0 0 0 0 0 0 0 0 0 0 0 0 0 0 0 0 0 0 0 58 105 309 492 599 346 348 581 616 498 674 923 1042 920 1474 1326 1724 1780 1831 1682 1682 1947 1988 2096 2046 2322 2783 3437
0 0 0 0 0 0 0 0 0 0 0 0 0 0 0 0 0 0 0 0 0 0 0 0 0 0 0 0 0 0 0 0 0 0 0 0 0 0 0 0 0 0 0 61 0 0 0 0 0 0 0 0 0 0 0 0 0 0 0 2 124 205 425 540 647 484 899 724 537 620 890 1114 1206 1077 1409 1543 1656 1639 1755 1933 1730 1886 2069 1888 2162 1907 2374 2917
0 0 0 16 0 0 0 0 0 0 0 0 0 0 0 0 0 0 0 0 0 0 0 0 0 0 0 0 0 0 0 0 0 0 0 0 0 0 0 0 0 0 0 0 0 0 0 0 0 0 0 0 0 0 0 0 0 0 0 33 262 425 536 226 241 268 113 603 470 637 1392 1286 1079 1242 1238 1537 1514 1590 1662 1967 2103 2005 2226 2293 2313 2165 1995 2736
49 0 0 0 0 0 0 0 0 0 0 0 0 0 0 0 0 0 0 0 0 0 0 0 0 0 0 0 0 0 0 0 0 0 0 0 0 0 0 0 0 0 0 0 0 0 0 0 0 0 0 0 0 0 0 0 0 0 22 398 555 542 836 670 405 463 600 682 468 274 1194 984 1160 1121 1383 1319 1486 1529 1770 2180 2186 2160 2096 2126 1693 1905 1769 1942
0 0 0 0 0 0 0 0 0 0 0 0 0 0 0 0 0 0 0 0 0 0 0 0 0 0 0 0 0 0 0 0 0 0 0 0 0 0 0 0 0 0 0 0 0 0 0 0 42 0 0 0 0 0 0 0 0 0 401 795 704 654 622 548 491 443 380 475 364 107 394 750 1102 1365 1253 1379 1682 1760 1903 2056 2189 2046 2138 1853 1555 1653 1877 2116
0 0 66 0 0 0 0 0 0 0 0 0 0 0 0 0 0 0 0 0 0 0 0 0 0 0 0 0 0 0 0 0 0 0 0 0 0 0 0 0 0 0 0 0 0 0 0 0 0 0 0 0 1 2 0 0 0 0 523 935 788 890 841 720 686 580 753 992 552 359 521 763 943 1353 1450 1512 1625 1758 1825 1822 1873 1688 1748 2020 1527 1766 2242 2208
0 0 0 67 0 0 0 0 0 0 0 0 0 0 0 0 0 0 0 0 0 0 0 0 0 0 0 0 0 0 0 0 0 0 0 0 0 0 0 0 0 0 0 0 0 0 0 0 0 0 0 0 0 0 0 0 0 0 766 727 880 768 700 606 647 550 517 501 841 414 1061 1140 1164 1326 1316 1371 1382 1508 1548 1591 1468 1668 1935 1992 2059 2169 2508 2530
Wind_Speed
nan nan nan nan nan nan nan nan nan nan nan nan nan nan nan nan nan nan nan nan nan nan nan nan nan nan nan nan nan nan nan nan nan nan nan nan nan nan 11 17 20 20 22 21 16 15 12 9 7 6 7 7 6 6 11 10 13 9 7 8 7 13 11 11 11 12 6 11 8 5 4 3 3 2 4 2 2 2 1 2 3 4 4 9 9 9 8 4
nan nan nan nan nan nan nan nan nan nan nan nan nan nan nan nan nan nan nan nan nan nan nan nan nan nan nan nan nan nan nan nan nan nan nan nan nan nan 18 21 19 22 23 18 17 12 8 10 8 8 8 4 5 6 7 9 11 13 11 9 15 14 14 11 12 13 13 12 12 8 3 3 5 3 4 4 1 0 2 1 1 2 5 6 7 9 9 5
nan nan nan nan nan nan nan nan nan nan nan nan nan nan nan nan nan nan nan nan nan nan nan nan nan nan nan nan nan nan nan nan nan nan nan 2 8 15 21 23 22 22 22 12 13 9 9 7 8 8 5 7 5 5 5 8 8 13 13 14 16 14 13 12 11 13 15 12 8 9 7 5 8 4 7 7 3 2 4 1 2 1 4 4 6 8 9 7
nan nan nan nan nan nan nan nan nan nan nan nan nan nan nan nan nan nan nan nan nan nan nan nan nan nan nan nan nan nan nan nan nan nan nan 6 12 14 21 23 25 25 18 10 10 11 9 8 8 9 7 7 2 5 4 7 6 12 10 17 16 13 9 13 10 12 14 12 11 10 10 6 5 3 2 4 5 3 6 3 4 1 4 6 6 7 8 9
nan nan nan nan nan nan nan nan nan nan nan nan nan nan nan nan nan nan nan nan nan nan nan nan nan nan nan nan nan nan nan nan nan nan 7 5 11 18 19 23 24 22 15 10 11 11 10 7 6 8 9 3 4 6 6 2 6 5 15 13 15 12 11 11 9 11 13 11 9 6 7 8 9 3 1 3 7 4 3 4 4 2 5 8 8 6 7 10
nan nan nan nan nan nan nan nan nan nan nan nan nan nan nan nan nan nan nan nan nan nan nan nan nan nan nan nan nan nan nan nan nan nan 2 6 12 18 21 21 23 19 15 14 12 11 10 8 10 8 4 4 6 6 5 5 4 5 12 13 13 14 14 11 7 11 11 12 11 10 8 8 5 6 4 3 4 11 12 9 4 3 5 7 8 7 7 10
nan nan nan nan nan nan nan nan nan nan nan nan nan nan nan nan nan nan nan nan nan nan nan nan nan nan nan nan nan nan nan nan nan nan 4 6 9 21 20 20 19 18 nan 16 13 11 10 9 9 3 7 5 4 6 7 7 3 5 8 12 13 11 13 12 7 8 8 10 12 12 7 6 7 7 9 4 3 7 11 7 6 5 5 7 9 8 8 9
nan nan nan nan nan nan nan nan nan nan nan nan nan nan nan nan nan nan nan nan nan nan nan nan nan nan nan nan nan nan nan nan nan nan 6 8 15 20 21 22 21 nan nan nan nan 11 7 8 5 5 6 3 4 6 4 6 3 4 4 7 9 9 11 11 10 8 9 9 10 10 8 6 6 7 8 5 4 6 6 7 7 7 6 6 7 9 8 8
nan nan nan nan nan nan nan nan nan nan nan nan nan nan nan nan nan nan nan nan nan nan nan nan nan nan nan nan nan nan nan nan nan nan 8 11 17 22 25 20 nan nan nan nan nan 9 8 6 6 1 0 4 1 3 5 7 4 5 4 2 5 6 9 10 11 9 7 9 9 9 8 7 6 6 5 5 6 7 7 6 8 8 7 6 5 6 8 8
nan nan nan nan nan nan nan nan nan nan nan nan nan nan nan nan nan nan nan nan nan nan nan nan nan nan nan nan nan nan nan nan nan 8 9 13 18 nan 22 nan nan nan nan nan nan nan 8 3 1 2 4 8 2 2 2 2 5 5 3 1 2 4 5 8 8 10 9 8 9 8 9 8 8 5 6 5 6 7 6 6 8 8 7 6 5 4 6 9
nan nan nan nan nan nan nan nan nan nan nan nan nan nan nan nan nan nan nan nan nan nan nan nan nan nan nan nan nan nan nan nan nan nan nan nan nan nan nan nan nan nan nan nan nan nan 5 nan 4 3 9 4 6 3 3 5 3 2 3 3 4 4 3 5 7 10 9 8 8 8 8 9 8 6 7 10 8 7 5 8 9 8 8 7 7 5 4 6
nan nan nan nan nan nan nan nan nan nan nan nan nan nan nan nan nan nan nan nan nan nan nan nan nan nan nan nan nan nan nan nan nan nan nan nan nan nan nan nan nan nan nan nan nan nan nan nan nan 3 1 nan 3 nan 9 1 3 1 2 6 5 6 3 4 4 7 9 12 12 13 10 7 7 5 3 7 9 9 7 8 10 9 10 8 9 7 3 3
nan nan nan nan nan nan nan nan nan nan nan nan nan nan nan nan nan nan nan nan nan nan nan nan nan nan nan nan nan nan nan nan nan nan nan nan nan nan nan nan nan nan nan nan nan nan nan nan nan nan nan nan nan 4 nan 4 5 5 6 3 6 12 3 8 6 7 8 15 16 14 11 17 12 5 9 9 10 10 9 9 10 11 9 10 10 9 5 4
nan nan nan nan nan nan nan nan nan nan nan nan nan nan nan nan nan nan nan nan nan nan nan nan nan nan nan nan nan nan nan nan nan nan nan nan nan nan nan nan nan nan nan nan nan nan nan nan nan nan nan nan nan nan 7 9 8 5 6 5 3 6 12 10 6 9 7 17 14 14 14 18 15 13 11 10 12 11 10 10 11 11 9 11 11 11 8 6
nan nan nan nan nan nan nan nan nan nan nan nan nan nan nan nan nan nan nan nan nan nan nan nan nan nan nan nan nan nan nan nan nan nan nan nan nan nan nan nan nan nan nan nan nan nan nan nan nan nan nan nan nan nan 6 7 9 6 5 7 8 5 13 14 7 8 6 12 12 14 17 14 10 15 13 11 13 11 9 11 11 11 10 11 11 11 10 8
nan nan nan nan nan nan nan nan nan nan nan nan nan nan nan nan nan nan nan nan nan nan nan nan nan nan nan nan nan nan nan nan nan nan nan nan nan nan nan nan nan nan nan nan nan nan nan nan nan nan nan nan nan 7 5 6 10 9 6 7 8 6 8 12 9 8 5 9 12 11 14 16 20 18 17 13 13 11 11 11 11 11 10 11 11 10 10 10
nan nan nan nan nan nan nan nan nan nan nan nan nan nan nan nan nan nan nan nan nan nan nan nan nan nan nan nan nan nan nan nan nan nan nan nan nan nan nan nan nan nan nan nan nan nan nan nan nan nan nan nan nan nan 5 5 8 nan 7 7 8 7 nan 10 12 9 9 5 7 10 8 10 16 17 18 14 12 12 11 11 11 11 10 10 10 10 10 10
nan nan nan nan nan nan nan nan nan nan nan nan nan nan nan nan nan nan nan nan nan nan nan nan nan nan nan nan nan nan nan nan nan nan nan nan nan nan nan nan nan nan nan nan nan nan nan nan nan nan nan nan nan nan 5 nan 10 nan nan nan nan nan nan nan nan 11 6 7 3 7 5 7 11 17 16 15 13 12 11 12 10 11 11 10 9 9 10 10
nan nan nan nan nan nan nan nan nan nan nan nan nan nan nan nan nan nan nan nan nan nan nan nan nan nan nan nan nan nan nan nan nan nan nan nan nan nan nan nan nan nan nan nan nan nan nan nan nan nan nan nan nan nan nan nan nan nan nan nan nan nan nan nan nan 9 6 4 6 7 6 7 11 14 16 15 14 12 11 11 11 10 11 11 10 9 10 10
nan nan nan nan nan nan nan nan nan nan nan nan nan nan nan nan nan nan nan nan nan nan nan nan nan nan nan nan nan nan nan nan nan nan nan nan nan nan nan nan nan nan nan nan nan nan nan nan nan nan nan nan nan nan nan nan nan nan nan nan nan nan nan nan nan 12 8 3 4 5 4 3 6 12 16 14 15 13 12 11 12 11 11 11 11 10 10 11
nan nan nan nan nan nan nan nan nan nan nan nan nan nan nan nan nan nan nan nan nan nan nan nan nan nan nan nan nan nan nan nan nan nan nan nan nan nan nan nan nan nan nan nan nan nan nan nan nan nan nan nan nan nan nan nan nan nan nan nan nan nan nan nan nan 15 8 4 nan 7 4 1 3 8 12 16 15 13 13 13 12 12 11 11 12 12 11 10
nan nan nan nan nan nan nan nan nan nan nan nan nan nan nan nan nan nan nan nan nan nan nan nan nan nan nan nan nan nan nan nan nan nan nan nan nan nan nan nan nan nan nan nan nan nan nan nan nan nan nan nan nan nan nan nan nan nan nan nan nan nan nan nan 20 15 11 5 8 8 3 2 2 5 10 14 14 13 13 14 14 13 12 11 12 12 12 10
nan nan nan nan nan nan nan nan nan nan nan nan nan nan nan nan nan nan nan nan nan nan nan nan nan nan nan nan nan nan nan nan nan nan nan nan nan nan nan nan nan nan nan nan nan nan nan nan nan nan nan nan nan nan nan nan nan nan nan nan nan nan nan nan 20 15 10 7 nan 9 6 5 4 4 5 11 12 12 12 14 14 14 12 12 12 13 13 11
nan nan nan nan nan nan nan nan nan nan nan nan nan nan nan nan nan nan nan nan nan nan nan nan nan nan nan nan nan nan nan nan nan nan nan nan nan nan nan nan nan nan nan nan nan nan nan nan nan nan nan nan nan nan nan nan nan nan nan nan nan nan nan nan nan nan 9 6 6 6 5 7 10 10 9 10 12 10 11 11 12 13 12 12 11 11 11 11
nan nan nan nan nan nan nan nan nan nan nan nan nan nan nan nan nan nan nan nan nan nan nan nan nan nan nan nan nan nan nan nan nan nan nan nan nan nan nan nan nan nan nan nan nan nan nan nan nan nan nan nan nan nan nan nan nan nan nan nan nan nan nan nan nan nan nan nan 13 9 nan nan 11 6 7 13 12 11 12 11 10 12 12 12 11 9 9 8
nan nan nan nan nan nan nan nan nan nan nan nan nan nan nan nan nan nan nan nan nan nan nan nan nan nan nan nan nan nan nan nan nan nan nan nan nan nan nan nan nan nan nan nan nan nan nan nan nan nan nan nan nan nan nan nan nan nan nan nan nan nan nan nan nan nan nan nan 16 9 nan 12 11 7 9 11 10 11 13 12 10 11 11 12 11 12 11 9
nan nan nan nan nan nan nan nan nan nan nan nan nan nan nan nan nan nan nan nan nan nan nan nan nan nan nan nan nan nan nan nan nan nan nan nan nan nan nan nan nan nan nan nan nan nan nan nan nan nan nan nan nan nan nan nan nan nan nan nan nan nan nan nan nan nan nan nan 7 6 8 10 nan nan 10 8 8 9 11 12 11 12 12 12 12 13 14 12
nan nan nan nan nan nan nan nan nan nan nan nan nan nan nan nan nan nan nan nan nan nan nan nan nan nan nan nan nan nan nan nan nan nan nan nan nan nan nan nan nan nan nan nan nan nan nan nan nan nan nan nan nan nan nan nan nan nan nan nan nan nan nan nan nan nan nan nan nan 13 15 11 10 12 10 6 5 7 7 9 13 12 12 12 13 14 15 15
nan nan nan nan nan nan nan nan nan nan nan nan nan nan nan nan nan nan nan nan nan nan nan nan nan nan nan nan nan nan nan nan nan nan nan nan nan nan nan nan nan nan nan nan nan nan nan nan nan nan nan nan nan nan nan nan nan nan nan nan nan nan nan nan nan nan nan nan nan nan 19 15 nan nan nan 11 8 nan nan 10 9 11 13 13 13 14 15 16
nan nan nan nan nan nan nan nan nan nan nan nan nan nan nan nan nan nan nan nan nan nan nan nan nan nan nan nan nan nan nan nan nan nan nan nan nan nan nan nan nan nan nan nan nan nan nan nan nan nan nan nan nan nan nan nan nan nan nan nan nan nan nan nan nan nan 17 nan nan nan nan nan nan nan nan 9 12 nan nan nan 14 12 13 14 13 14 15 17
nan nan nan nan nan nan nan nan nan nan nan nan nan nan nan nan nan nan nan nan nan nan nan nan nan nan nan nan nan nan nan nan nan nan nan nan nan nan nan nan nan nan nan nan nan nan nan nan nan nan nan nan nan nan nan nan nan nan nan nan nan nan nan nan 14 20 nan nan nan nan nan 9 8 nan nan nan nan nan nan nan nan 11 11 12 13 13 14 17
nan nan nan nan nan nan nan nan nan nan nan nan nan nan nan nan nan nan nan nan nan nan nan nan nan nan nan nan nan nan nan nan nan nan nan nan nan nan nan nan nan nan nan nan nan nan nan nan nan nan nan nan nan nan nan nan nan nan nan nan nan nan nan nan nan nan nan nan 20 nan nan nan nan nan nan nan nan nan nan nan 15 13 10 10 10 11 12 14
nan nan nan nan nan nan nan nan nan nan nan nan nan nan nan nan nan nan nan nan nan nan nan nan nan nan nan nan nan nan nan nan nan nan nan nan nan nan nan nan nan nan nan nan nan nan nan nan nan nan nan nan nan nan nan nan nan nan nan nan nan nan nan nan nan nan nan nan nan nan 18 nan nan nan nan nan nan nan nan 14 14 13 10 6 6 8 9 12
nan nan nan nan nan nan nan nan nan nan nan nan nan nan nan nan nan nan nan nan nan nan nan nan nan nan nan nan nan nan nan nan nan nan nan nan nan nan nan nan nan nan nan nan nan nan nan nan nan nan nan nan nan nan nan nan nan nan nan nan nan nan nan nan nan nan nan nan nan 20 nan nan nan nan nan nan nan 24 24 23 20 16 14 7 3 8 9 11
nan nan nan nan nan nan nan nan nan nan nan nan nan nan nan nan nan nan nan nan nan nan nan nan nan nan nan nan nan nan nan nan nan nan nan nan nan nan nan nan nan nan nan nan nan nan nan nan nan nan nan nan nan nan nan nan nan nan nan nan nan nan nan nan nan nan nan nan nan nan nan nan nan nan nan nan nan 19 nan 26 23 20 19 13 6 8 9 8
nan nan nan nan nan nan nan nan nan nan nan nan nan nan nan nan nan nan nan nan nan nan nan nan nan nan nan nan nan nan nan nan nan nan nan nan nan nan nan nan nan nan nan nan nan nan nan nan nan nan nan nan nan nan nan nan nan nan nan nan nan nan nan nan nan nan nan nan nan nan nan nan nan nan nan nan nan 27 25 23 17 19 19 15 10 10 9 8
nan nan nan nan nan nan nan nan nan nan nan nan nan nan nan nan nan nan nan nan nan nan nan nan nan nan nan nan nan nan nan nan nan nan nan nan nan nan nan nan nan nan nan nan nan nan nan nan nan nan nan nan nan nan nan nan nan nan nan nan nan nan nan nan nan nan nan nan nan nan nan nan nan nan nan nan 23 21 13 15 20 21 19 15 15 14 13 9
nan nan nan nan nan nan nan nan nan nan nan nan nan nan nan nan nan nan nan nan nan nan nan nan nan nan nan nan nan nan nan nan nan nan nan nan nan nan nan nan nan nan nan nan nan nan nan nan nan nan nan nan nan nan nan nan nan nan nan nan nan nan nan nan nan nan nan nan nan nan nan nan nan nan nan 20 22 16 15 18 20 24 24 20 18 17 16 11
nan nan nan nan nan nan nan nan nan nan nan nan nan nan nan nan nan nan nan nan nan nan nan nan nan nan nan nan nan nan nan nan nan nan nan nan nan nan nan nan nan nan nan nan nan nan nan nan nan nan nan nan nan nan nan nan nan nan nan nan nan nan nan nan nan nan nan nan nan nan nan nan 28 26 18 16 18 16 18 21 23 25 27 25 25 21 14 11
nan nan nan nan nan nan nan nan nan nan nan nan nan nan nan nan nan nan nan nan nan nan nan nan nan nan nan nan nan nan nan nan nan nan nan nan nan nan nan nan nan nan nan nan nan nan nan nan nan nan nan nan nan nan nan nan nan nan nan nan nan nan nan nan nan nan nan nan nan nan nan nan 28 25 19 17 15 16 20 22 23 26 29 29 28 22 18 14
nan nan nan nan nan nan nan nan nan nan nan nan nan nan nan nan nan nan nan nan nan nan nan nan nan nan nan nan nan nan nan nan nan nan nan nan nan nan nan nan nan nan nan nan nan nan nan nan nan nan nan nan nan nan nan nan nan nan nan nan nan nan nan nan nan nan nan nan nan nan nan 23 26 20 18 18 16 17 20 22 24 29 30 31 29 27 24 20
nan nan nan nan nan nan nan nan nan nan nan nan nan nan nan nan nan nan nan nan nan nan nan nan nan nan nan nan nan nan nan nan nan nan nan nan nan nan nan nan nan nan nan nan nan nan nan nan nan nan nan nan nan nan nan nan nan nan nan nan nan nan nan 13 nan nan 16 nan nan nan nan 26 27 23 22 21 19 21 21 25 24 29 33 34 30 29 29 25
nan nan nan nan nan nan nan nan nan nan nan nan nan nan nan nan nan nan nan nan nan nan nan nan nan nan nan nan nan nan nan nan nan nan nan nan nan nan nan nan nan nan nan nan nan nan nan nan nan nan nan nan nan nan nan nan nan nan nan nan nan nan 16 18 20 23 17 nan 22 23 nan 26 26 23 25 26 22 22 23 26 27 28 34 34 32 32 31 27
nan nan nan nan nan nan nan nan nan nan nan nan nan nan nan nan nan nan nan nan nan nan nan nan nan nan nan nan nan nan nan nan nan nan nan nan nan nan nan nan nan nan nan nan nan nan nan nan nan nan nan nan nan nan nan nan nan nan nan nan nan nan 16 20 20 25 17 15 nan 17 10 24 20 22 25 27 26 27 28 28 27 29 35 34 33 29 29 28
nan nan nan nan nan nan nan nan nan nan nan nan nan nan nan nan nan nan nan nan nan nan nan nan nan nan nan nan nan nan nan nan nan nan nan nan nan nan nan nan nan nan nan nan nan nan nan nan nan nan nan nan nan nan nan nan nan nan nan nan nan nan 17 24 21 23 18 21 19 17 nan 25 20 19 25 32 31 31 31 30 29 30 37 37 37 35 33 29
nan nan nan nan nan nan nan nan nan nan nan nan nan nan nan nan nan nan nan nan nan nan nan nan nan nan nan nan nan nan nan nan nan nan nan nan nan nan nan nan nan nan nan nan nan nan nan nan nan nan nan nan nan nan nan nan nan nan nan nan nan 16 18 22 25 22 18 21 23 16 15 14 13 20 28 33 35 34 33 32 32 29 36 38 40 38 36 30
nan nan nan nan nan nan nan nan nan nan nan nan nan nan nan nan nan nan nan nan nan nan nan nan nan nan nan nan nan nan nan nan nan nan nan nan nan nan nan nan nan nan nan nan nan nan nan nan nan nan nan nan nan nan nan nan nan nan nan nan 14 14 18 21 19 22 32 23 17 12 12 16 22 23 30 35 37 33 31 31 30 27 32 37 38 39 40 32
nan nan nan nan nan nan nan nan nan nan nan nan nan nan nan nan nan nan nan nan nan nan nan nan nan nan nan nan nan nan nan nan nan nan nan nan nan nan nan nan nan nan nan nan nan nan nan nan nan nan nan nan nan nan nan nan nan nan nan nan 12 15 19 17 18 20 21 16 13 13 13 20 23 26 30 32 32 31 30 28 27 26 26 30 40 42 40 32
nan nan nan nan nan nan nan nan nan nan nan nan nan nan nan nan nan nan nan nan nan nan nan nan nan nan nan nan nan nan nan nan nan nan nan nan nan nan nan nan nan nan nan nan nan nan nan nan nan nan nan nan nan nan nan nan nan nan nan 16 16 18 20 25 22 21 18 15 17 18 16 24 30 31 32 32 29 29 28 26 27 30 28 31 41 42 40 31
nan nan nan nan nan nan nan nan nan nan nan nan nan nan nan nan nan nan nan nan nan nan nan nan nan nan nan nan nan nan nan nan nan nan nan nan nan nan nan nan nan nan nan nan nan nan nan nan nan nan nan nan nan nan nan nan nan nan 19 20 23 24 26 31 22 22 22 18 19 17 22 25 27 31 34 32 29 29 29 28 30 28 23 33 37 33 30 28
nan nan nan nan nan nan nan nan nan nan nan nan nan nan nan nan nan nan nan nan nan nan nan nan nan nan nan nan nan nan nan nan nan nan nan nan nan nan nan nan nan nan nan nan nan nan nan nan nan nan nan nan nan nan nan nan nan nan 20 24 25 25 24 26 25 24 24 23 20 18 17 19 20 29 34 35 33 31 31 27 29 26 20 24 26 11 20 24
nan nan nan nan nan nan nan nan nan nan nan nan nan nan nan nan nan nan nan nan nan nan nan nan nan nan nan nan nan nan nan nan nan nan nan nan nan nan nan nan nan nan nan nan nan nan nan nan nan nan nan nan nan nan nan nan nan nan 24 22 21 21 22 24 24 25 27 26 23 21 22 22 23 30 37 38 34 31 29 27 27 22 18 25 19 15 20 21
Wind_Direction
nan nan nan nan nan nan nan nan nan nan nan nan nan nan nan nan nan nan nan nan nan nan nan nan nan nan nan nan nan nan nan nan nan nan nan nan nan nan 344 333 355 2 15 24 11 23 25 39 47 75 97 107 178 168 187 176 176 169 185 200 233 222 235 235 235 231 217 207 226 217 196 153 198 180 193 141 74 125 346 89 229 193 175 200 225 244 261 309
nan nan nan nan nan nan nan nan nan nan nan nan nan nan nan nan nan nan nan nan nan nan nan nan nan nan nan nan nan nan nan nan nan nan nan nan nan nan 345 344 356 6 21 20 21 27 34 46 47 61 90 115 129 187 149 201 179 181 204 210 225 221 234 228 242 232 202 217 212 216 191 190 206 217 229 140 173 307 66 99 6 260 236 236 259 274 290 313
nan nan nan nan nan nan nan nan nan nan nan nan nan nan nan nan nan nan nan nan nan nan nan nan nan nan nan nan nan nan nan nan nan nan nan 31 2 354 352 350 359 8 23 20 28 23 43 43 46 62 112 101 150 172 162 213 168 210 185 222 234 224 234 246 245 230 213 215 205 213 218 163 233 196 239 143 188 111 106 145 55 325 281 280 284 299 305 321
nan nan nan nan nan nan nan nan nan nan nan nan nan nan nan nan nan nan nan nan nan nan nan nan nan nan nan nan nan nan nan nan nan nan nan 344 16 2 2 357 359 9 25 43 24 21 37 36 45 69 77 97 138 119 141 209 163 213 193 219 228 227 226 259 247 227 219 220 214 205 210 183 245 215 198 162 137 141 125 140 119 80 295 298 309 317 320 324
nan nan nan nan nan nan nan nan nan nan nan nan nan nan nan nan nan nan nan nan nan nan nan nan nan nan nan nan nan nan nan nan nan nan 318 19 11 5 10 3 2 7 21 15 21 23 35 45 61 83 84 109 120 64 184 169 189 181 219 217 224 233 230 248 247 227 223 223 225 221 207 212 220 192 159 176 129 232 172 182 157 216 303 309 325 333 336 333
nan nan nan nan nan nan nan nan nan nan nan nan nan nan nan nan nan nan nan nan nan nan nan nan nan nan nan nan nan nan nan nan nan nan 346 36 23 3 5 8 10 19 13 14 28 18 30 33 62 59 65 98 175 156 167 157 149 187 250 229 224 224 223 230 235 226 218 232 220 224 217 194 171 199 201 171 131 187 194 193 194 255 301 311 315 322 349 344
nan nan nan nan nan nan nan nan nan nan nan nan nan nan nan nan nan nan nan nan nan nan nan nan nan nan nan nan nan nan nan nan nan nan 341 60 15 356 355 4 16 18 nan 17 23 24 24 31 53 71 64 40 209 151 185 140 145 162 212 215 231 232 226 235 232 228 220 224 224 223 218 197 196 171 215 174 170 198 202 215 222 267 286 300 317 326 344 355
nan nan nan nan nan nan nan nan nan nan nan nan nan nan nan nan nan nan nan nan nan nan nan nan nan nan nan nan nan nan nan nan nan nan 338 44 348 343 348 360 8 nan nan nan nan 26 15 35 47 58 39 131 177 132 184 105 96 138 214 229 240 227 231 230 241 238 222 215 216 217 213 221 196 183 195 192 177 233 232 243 264 281 296 308 312 323 327 346
nan nan nan nan nan nan nan nan nan nan nan nan nan nan nan nan nan nan nan nan nan nan nan nan nan nan nan nan nan nan nan nan nan nan 353 348 333 341 352 355 nan nan nan nan nan 24 34 336 39 29 43 82 212 96 188 134 338 146 186 221 257 238 234 236 245 241 235 223 218 221 228 220 208 201 163 188 215 242 254 265 280 291 304 313 303 317 329 333
nan nan nan nan nan nan nan nan nan nan nan nan nan nan nan nan nan nan nan nan nan nan nan nan nan nan nan nan nan nan nan nan nan 330 343 334 333 nan 355 nan nan nan nan nan nan nan 24 319 64 29 76 24 79 318 122 106 210 143 123 305 310 271 241 252 243 250 240 230 237 223 228 221 228 224 234 258 238 256 273 279 289 298 307 301 287 306 331 333
nan nan nan nan nan nan nan nan nan nan nan nan nan nan nan nan nan nan nan nan nan nan nan nan nan nan nan nan nan nan nan nan nan nan nan nan nan nan nan nan nan nan nan nan nan nan 347 nan 321 30 31 276 89 323 305 258 143 128 118 51 5 328 290 255 247 254 248 242 240 228 221 221 231 229 211 244 263 268 273 288 298 300 294 283 284 291 328 332
nan nan nan nan nan nan nan nan nan nan nan nan nan nan nan nan nan nan nan nan nan nan nan nan nan nan nan nan nan nan nan nan nan nan nan nan nan nan nan nan nan nan nan nan nan nan nan nan nan 17 280 nan 352 nan 312 253 346 348 54 68 335 341 327 307 267 258 251 246 246 235 221 233 259 244 260 263 273 278 278 290 300 301 291 283 282 282 298 328
nan nan nan nan nan nan nan nan nan nan nan nan nan nan nan nan nan nan nan nan nan nan nan nan nan nan nan nan nan nan nan nan nan nan nan nan nan nan nan nan nan nan nan nan nan nan nan nan nan nan nan nan nan 270 nan 350 313 344 345 73 49 309 294 287 279 276 270 253 247 242 228 246 267 280 263 282 281 288 286 289 296 292 295 282 287 281 295 314
nan nan nan nan nan nan nan nan nan nan nan nan nan nan nan nan nan nan nan nan nan nan nan nan nan nan nan nan nan nan nan nan nan nan nan nan nan nan nan nan nan nan nan nan nan nan nan nan nan nan nan nan nan nan 352 337 332 333 296 2 277 306 287 293 289 295 288 265 260 246 221 238 220 263 267 275 281 290 292 289 291 293 297 287 290 290 297 316
nan nan nan nan nan nan nan nan nan nan nan nan nan nan nan nan nan nan nan nan nan nan nan nan nan nan nan nan nan nan nan nan nan nan nan nan nan nan nan nan nan nan nan nan nan nan nan nan nan nan nan nan nan nan 334 323 319 312 346 309 287 267 290 295 292 305 281 280 281 262 234 221 248 260 263 267 276 283 283 286 289 291 294 290 291 301 305 309
nan nan nan nan nan nan nan nan nan nan nan nan nan nan nan nan nan nan nan nan nan nan nan nan nan nan nan nan nan nan nan nan nan nan nan nan nan nan nan nan nan nan nan nan nan nan nan nan nan nan nan nan nan 311 299 319 313 306 291 276 272 256 253 293 293 307 288 277 299 293 241 229 244 246 264 263 275 281 276 281 288 292 299 294 293 298 303 301
nan nan nan nan nan nan nan nan nan nan nan nan nan nan nan nan nan nan nan nan nan nan nan nan nan nan nan nan nan nan nan nan nan nan nan nan nan nan nan nan nan nan nan nan nan nan nan nan nan nan nan nan nan nan 291 298 291 nan 268 268 267 261 nan 257 292 285 298 312 296 313 271 257 249 259 265 270 273 276 271 278 286 289 288 296 294 302 304 301
nan nan nan nan nan nan nan nan nan nan nan nan nan nan nan nan nan nan nan nan nan nan nan nan nan nan nan nan nan nan nan nan nan nan nan nan nan nan nan nan nan nan nan nan nan nan nan nan nan nan nan nan nan nan 294 nan 246 nan nan nan nan nan nan nan nan 273 285 308 296 298 306 241 231 254 265 270 275 276 271 274 287 294 294 293 294 300 305 301
nan nan nan nan nan nan nan nan nan nan nan nan nan nan nan nan nan nan nan nan nan nan nan nan nan nan nan nan nan nan nan nan nan nan nan nan nan nan nan nan nan nan nan nan nan nan nan nan nan nan nan nan nan nan nan nan nan nan nan nan nan nan nan nan nan 246 250 264 313 316 289 257 253 266 269 270 276 278 273 268 268 280 285 287 287 292 295 296
nan nan nan nan nan nan nan nan nan nan nan nan nan nan nan nan nan nan nan nan nan nan nan nan nan nan nan nan nan nan nan nan nan nan nan nan nan nan nan nan nan nan nan nan nan nan nan nan nan nan nan nan nan nan nan nan nan nan nan nan nan nan nan nan nan 260 261 251 282 289 300 273 247 250 271 276 278 276 273 275 273 274 277 284 287 291 294 300
nan nan nan nan nan nan nan nan nan nan nan nan nan nan nan nan nan nan nan nan nan nan nan nan nan nan nan nan nan nan nan nan nan nan nan nan nan nan nan nan nan nan nan nan nan nan nan nan nan nan nan nan nan nan nan nan nan nan nan nan nan nan nan nan nan 271 268 247 nan 252 262 265 246 261 273 284 290 289 286 284 287 292 291 283 293 295 296 297
nan nan nan nan nan nan nan nan nan nan nan nan nan nan nan nan nan nan nan nan nan nan nan nan nan nan nan nan nan nan nan nan nan nan nan nan nan nan nan nan nan nan nan nan nan nan nan nan nan nan nan nan nan nan nan nan nan nan nan nan nan nan nan nan 269 279 273 267 228 231 199 212 236 272 285 300 305 292 290 290 289 292 298 288 288 292 292 296
nan nan nan nan nan nan nan nan nan nan nan nan nan nan nan nan nan nan nan nan nan nan nan nan nan nan nan nan nan nan nan nan nan nan nan nan nan nan nan nan nan nan nan nan nan nan nan nan nan nan nan nan nan nan nan nan nan nan nan nan nan nan nan nan 275 275 286 258 nan 207 186 207 205 266 293 310 315 295 292 295 292 292 298 302 299 293 295 305
nan nan nan nan nan nan nan nan nan nan nan nan nan nan nan nan nan nan nan nan nan nan nan nan nan nan nan nan nan nan nan nan nan nan nan nan nan nan nan nan nan nan nan nan nan nan nan nan nan nan nan nan nan nan nan nan nan nan nan nan nan nan nan nan nan nan 260 279 252 218 219 229 257 260 286 310 318 307 297 296 297 296 296 295 297 300 302 308
nan nan nan nan nan nan nan nan nan nan nan nan nan nan nan nan nan nan nan nan nan nan nan nan nan nan nan nan nan nan nan nan nan nan nan nan nan nan nan nan nan nan nan nan nan nan nan nan nan nan nan nan nan nan nan nan nan nan nan nan nan nan nan nan nan nan nan nan 278 229 nan nan 251 238 235 274 299 318 310 311 311 303 297 295 303 305 295 296
nan nan nan nan nan nan nan nan nan nan nan nan nan nan nan nan nan nan nan nan nan nan nan nan nan nan nan nan nan nan nan nan nan nan nan nan nan nan nan nan nan nan nan nan nan nan nan nan nan nan nan nan nan nan nan nan nan nan nan nan nan nan nan nan nan nan nan nan 264 258 nan 236 242 206 243 272 290 313 309 323 318 303 295 293 290 292 297 303
nan nan nan nan nan nan nan nan nan nan nan nan nan nan nan nan nan nan nan nan nan nan nan nan nan nan nan nan nan nan nan nan nan nan nan nan nan nan nan nan nan nan nan nan nan nan nan nan nan nan nan nan nan nan nan nan nan nan nan nan nan nan nan nan nan nan nan nan 256 262 247 234 nan nan 245 265 271 295 316 323 321 306 306 305 297 295 299 301
nan nan nan nan nan nan nan nan nan nan nan nan nan nan nan nan nan nan nan nan nan nan nan nan nan nan nan nan nan nan nan nan nan nan nan nan nan nan nan nan nan nan nan nan nan nan nan nan nan nan nan nan nan nan nan nan nan nan nan nan nan nan nan nan nan nan nan nan nan 274 262 232 240 247 264 263 249 277 301 313 322 323 318 315 310 302 300 304
nan nan nan nan nan nan nan nan nan nan nan nan nan nan nan nan nan nan nan nan nan nan nan nan nan nan nan nan nan nan nan nan nan nan nan nan nan nan nan nan nan nan nan nan nan nan nan nan nan nan nan nan nan nan nan nan nan nan nan nan nan nan nan nan nan nan nan nan nan nan 252 230 nan nan nan 249 199 nan nan 290 301 327 335 326 320 316 305 297
nan nan nan nan nan nan nan nan nan nan nan nan nan nan nan nan nan nan nan nan nan nan nan nan nan nan nan nan nan nan nan nan nan nan nan nan nan nan nan nan nan nan nan nan nan nan nan nan nan nan nan nan nan nan nan nan nan nan nan nan nan nan nan nan nan nan 255 nan nan nan nan nan nan nan nan 234 227 nan nan nan 282 316 330 337 332 328 313 300
nan nan nan nan nan nan nan nan nan nan nan nan nan nan nan nan nan nan nan nan nan nan nan nan nan nan nan nan nan nan nan nan nan nan nan nan nan nan nan nan nan nan nan nan nan nan nan nan nan nan nan nan nan nan nan nan nan nan nan nan nan nan nan nan 274 265 nan nan nan nan nan 269 239 nan nan nan nan nan nan nan nan 250 305 326 330 326 328 320
nan nan nan nan nan nan nan nan nan nan nan nan nan nan nan nan nan nan nan nan nan nan nan nan nan nan nan nan nan nan nan nan nan nan nan nan nan nan nan nan nan nan nan nan nan nan nan nan nan nan nan nan nan nan nan nan nan nan nan nan nan nan nan nan nan nan nan nan 255 nan nan nan nan nan nan nan nan nan nan nan 217 211 234 300 325 333 327 326
nan nan nan nan nan nan nan nan nan nan nan nan nan nan nan nan nan nan nan nan nan nan nan nan nan nan nan nan nan nan nan nan nan nan nan nan nan nan nan nan nan nan nan nan nan nan nan nan nan nan nan nan nan nan nan nan nan nan nan nan nan nan nan nan nan nan nan nan nan nan 236 nan nan nan nan nan nan nan nan 215 216 211 207 230 306 325 328 327
nan nan nan nan nan nan nan nan nan nan nan nan nan nan nan nan nan nan nan nan nan nan nan nan nan nan nan nan nan nan nan nan nan nan nan nan nan nan nan nan nan nan nan nan nan nan nan nan nan nan nan nan nan nan nan nan nan nan nan nan nan nan nan nan nan nan nan nan nan 253 nan nan nan nan nan nan nan 201 209 212 218 220 210 196 277 304 323 330
nan nan nan nan nan nan nan nan nan nan nan nan nan nan nan nan nan nan nan nan nan nan nan nan nan nan nan nan nan nan nan nan nan nan nan nan nan nan nan nan nan nan nan nan nan nan nan nan nan nan nan nan nan nan nan nan nan nan nan nan nan nan nan nan nan nan nan nan nan nan nan nan nan nan nan nan nan 209 nan 204 202 219 215 200 219 280 304 320
nan nan nan nan nan nan nan nan nan nan nan nan nan nan nan nan nan nan nan nan nan nan nan nan nan nan nan nan nan nan nan nan nan nan nan nan nan nan nan nan nan nan nan nan nan nan nan nan nan nan nan nan nan nan nan nan nan nan nan nan nan nan nan nan nan nan nan nan nan nan nan nan nan nan nan nan nan 201 195 196 201 223 224 211 206 250 284 292
nan nan nan nan nan nan nan nan nan nan nan nan nan nan nan nan nan nan nan nan nan nan nan nan nan nan nan nan nan nan nan nan nan nan nan nan nan nan nan nan nan nan nan nan nan nan nan nan nan nan nan nan nan nan nan nan nan nan nan nan nan nan nan nan nan nan nan nan nan nan nan nan nan nan nan nan 201 196 193 189 203 224 234 229 218 229 254 272
nan nan nan nan nan nan nan nan nan nan nan nan nan nan nan nan nan nan nan nan nan nan nan nan nan nan nan nan nan nan nan nan nan nan nan nan nan nan nan nan nan nan nan nan nan nan nan nan nan nan nan nan nan nan nan nan nan nan nan nan nan nan nan nan nan nan nan nan nan nan nan nan nan nan nan 196 182 183 189 198 205 217 227 224 216 227 250 269
nan nan nan nan nan nan nan nan nan nan nan nan nan nan nan nan nan nan nan nan nan nan nan nan nan nan nan nan nan nan nan nan nan nan nan nan nan nan nan nan nan nan nan nan nan nan nan nan nan nan nan nan nan nan nan nan nan nan nan nan nan nan nan nan nan nan nan nan nan nan nan nan 248 235 207 180 184 188 194 199 207 212 218 221 212 210 239 259
nan nan nan nan nan nan nan nan nan nan nan nan nan nan nan nan nan nan nan nan nan nan nan nan nan nan nan nan nan nan nan nan nan nan nan nan nan nan nan nan nan nan nan nan nan nan nan nan nan nan nan nan nan nan nan nan nan nan nan nan nan nan nan nan nan nan nan nan nan nan nan nan 250 235 206 192 195 204 204 204 206 213 218 217 211 196 207 229
nan nan nan nan nan nan nan nan nan nan nan nan nan nan nan nan nan nan nan nan nan nan nan nan nan nan nan nan nan nan nan nan nan nan nan nan nan nan nan nan nan nan nan nan nan nan nan nan nan nan nan nan nan nan nan nan nan nan nan nan nan nan nan nan nan nan nan nan nan nan nan 245 249 229 206 208 211 211 210 210 212 217 219 217 203 194 207 218
nan nan nan nan nan nan nan nan nan nan nan nan nan nan nan nan nan nan nan nan nan nan nan nan nan nan nan nan nan nan nan nan nan nan nan nan nan nan nan nan nan nan nan nan nan nan nan nan nan nan nan nan nan nan nan nan nan nan nan nan nan nan nan 272 nan nan 253 nan nan nan nan 248 243 230 215 219 218 217 214 218 216 222 222 213 196 195 207 215
nan nan nan nan nan nan nan nan nan nan nan nan nan nan nan nan nan nan nan nan nan nan nan nan nan nan nan nan nan nan nan nan nan nan nan nan nan nan nan nan nan nan nan nan nan nan nan nan nan nan nan nan nan nan nan nan nan nan nan nan nan nan 262 254 249 241 241 nan 237 232 nan 251 248 229 220 219 221 221 224 224 220 226 227 212 196 197 206 208
nan nan nan nan nan nan nan nan nan nan nan nan nan nan nan nan nan nan nan nan nan nan nan nan nan nan nan nan nan nan nan nan nan nan nan nan nan nan nan nan nan nan nan nan nan nan nan nan nan nan nan nan nan nan nan nan nan nan nan nan nan nan 262 253 255 273 260 247 nan 253 225 257 246 230 214 210 219 222 219 225 221 229 233 213 198 202 208 208
nan nan nan nan nan nan nan nan nan nan nan nan nan nan nan nan nan nan nan nan nan nan nan nan nan nan nan nan nan nan nan nan nan nan nan nan nan nan nan nan nan nan nan nan nan nan nan nan nan nan nan nan nan nan nan nan nan nan nan nan nan nan 258 264 272 257 253 262 254 234 nan 235 236 227 210 204 209 217 218 222 221 229 233 211 200 204 206 207
nan nan nan nan nan nan nan nan nan nan nan nan nan nan nan nan nan nan nan nan nan nan nan nan nan nan nan nan nan nan nan nan nan nan nan nan nan nan nan nan nan nan nan nan nan nan nan nan nan nan nan nan nan nan nan nan nan nan nan nan nan 266 260 266 263 264 268 260 247 230 190 232 252 216 203 201 208 210 211 213 216 219 225 211 204 205 202 201
nan nan nan nan nan nan nan nan nan nan nan nan nan nan nan nan nan nan nan nan nan nan nan nan nan nan nan nan nan nan nan nan nan nan nan nan nan nan nan nan nan nan nan nan nan nan nan nan nan nan nan nan nan nan nan nan nan nan nan nan 259 259 256 253 250 250 251 248 254 259 187 206 225 208 197 201 207 210 212 213 216 223 222 208 207 207 200 197
nan nan nan nan nan nan nan nan nan nan nan nan nan nan nan nan nan nan nan nan nan nan nan nan nan nan nan nan nan nan nan nan nan nan nan nan nan nan nan nan nan nan nan nan nan nan nan nan nan nan nan nan nan nan nan nan nan nan nan nan 256 251 257 267 257 234 234 249 241 236 206 211 217 204 197 203 208 209 211 215 224 232 225 208 208 209 200 194
nan nan nan nan nan nan nan nan nan nan nan nan nan nan nan nan nan nan nan nan nan nan nan nan nan nan nan nan nan nan nan nan nan nan nan nan nan nan nan nan nan nan nan nan nan nan nan nan nan nan nan nan nan nan nan nan nan nan nan 259 250 247 246 248 238 231 231 217 217 210 201 222 211 202 200 203 205 212 214 216 230 237 226 213 216 209 195 183
nan nan nan nan nan nan nan nan nan nan nan nan nan nan nan nan nan nan nan nan nan nan nan nan nan nan nan nan nan nan nan nan nan nan nan nan nan nan nan nan nan nan nan nan nan nan nan nan nan nan nan nan nan nan nan nan nan nan 269 256 246 240 251 261 259 243 219 205 213 207 194 210 207 201 204 205 208 217 218 215 227 234 225 224 222 203 174 166
nan nan nan nan nan nan nan nan nan nan nan nan nan nan nan nan nan nan nan nan nan nan nan nan nan nan nan nan nan nan nan nan nan nan nan nan nan nan nan nan nan nan nan nan nan nan nan nan nan nan nan nan nan nan nan nan nan nan 273 259 252 249 252 253 257 246 231 223 211 186 212 222 201 194 204 208 204 216 223 220 225 232 226 230 235 172 139 162
nan nan nan nan nan nan nan nan nan nan nan nan nan nan nan nan nan nan nan nan nan nan nan nan nan nan nan nan nan nan nan nan nan nan nan nan nan nan nan nan nan nan nan nan nan nan nan nan nan nan nan nan nan nan nan nan nan nan 284 267 256 257 263 267 269 262 251 235 222 210 215 219 205 201 201 205 202 207 219 222 216 222 237 228 209 153 152 162